Location: Les Coudrans
(46.1056°N, 1.1158°W)
Time: 21:26:39
(UTC+00:00)

IRS-1A Rocket - Pass Details

Date: 03 March 2021
Orbit: 852 x 930 km, 99.2° (Epoch: 21 April)

Event Time Altitude Azimuth Distance (km) Brightness Sun altitude
Exits shadow 19:46:40 26° 147° (SSE) 1,672 5.3 -20.3°
Maximum altitude 19:49:56 68° 71° (ENE) 940 4.2 -20.8°
Drops below altitude 10° 19:55:28 10° 350° (N) 2,512 6.9 -21.7°
Sets 19:57:50 0° 348° (NNW) 3,446 7.7 -22.1°
